Location: Bezawada
(16.5136°N, 80.6297°E)
Time: 06:34:45
(UTC+00:00)

USA 267 - Pass Details

Date: 27 February 2020
Orbit: 1101 x 1107 km, 123.0° (Epoch: 05 April)

Event Time Altitude Azimuth Distance (km) Brightness Sun altitude
Exits shadow 14:50:07 43° 6° (N) 1,497 3.8 -31.0°
Maximum altitude 14:52:06 61° 310° (NW) 1,240 3.6 -31.5°
Drops below altitude 10° 14:58:31 10° 231° (SW) 2,955 6.0 -33.0°
Sets 15:01:01 0° 228° (SW) 3,913 6.7 -33.6°
